Time,TemperatureF,DewpointF,PressureIn,WindDirection,WindDirectionDegrees,WindSpeedMPH,WindSpeedGustMPH,Humidity,HourlyPrecipIn,Conditions,Clouds,dailyrainin,SoftwareType,DateUTC
2013-03-21 00:01:00,31.3,24.6,30.02,East,90,8.0,12.0,76,0.00,,,0.09,meteohub,2013-03-21 07:01:00,
2013-03-21 00:07:00,31.3,24.3,30.03,South,180,4.0,12.0,75,0.00,,,0.00,meteohub,2013-03-21 07:07:00,
2013-03-21 00:13:00,31.3,23.9,30.03,NW,315,5.0,12.0,74,0.00,,,0.00,meteohub,2013-03-21 07:13:00,
2013-03-21 00:19:00,30.9,23.5,30.03,WSW,248,4.0,9.0,74,0.00,,,0.00,meteohub,2013-03-21 07:19:00,
2013-03-21 00:25:00,30.6,23.2,30.04,South,180,4.0,9.0,74,0.00,,,0.00,meteohub,2013-03-21 07:25:00,
2013-03-21 00:32:00,30.2,23.0,30.04,NW,315,5.0,8.0,74,0.00,,,0.00,meteohub,2013-03-21 07:32:00,
2013-03-21 00:37:00,30.0,23.4,30.04,South,180,2.0,8.0,76,0.00,,,0.00,meteohub,2013-03-21 07:37:00,
2013-03-21 00:42:00,29.8,23.2,30.04,SSW,203,4.0,6.0,76,0.00,,,0.00,meteohub,2013-03-21 07:42:00,
2013-03-21 00:47:00,29.7,23.0,30.04,South,180,2.0,5.0,76,0.00,,,0.00,meteohub,2013-03-21 07:47:00,
2013-03-21 00:52:00,29.5,22.8,30.04,SE,135,5.0,5.0,76,0.00,,,0.00,meteohub,2013-03-21 07:52:00,
2013-03-21 00:58:00,29.5,22.8,30.04,NW,315,3.0,5.0,76,0.00,,,0.00,meteohub,2013-03-21 07:58:00,
2013-03-21 01:04:00,29.3,22.6,30.05,West,270,2.0,5.0,76,0.00,,,0.00,meteohub,2013-03-21 08:04:00,
2013-03-21 01:10:00,29.1,22.3,30.04,NW,315,2.0,5.0,75,0.00,,,0.00,meteohub,2013-03-21 08:10:00,
2013-03-21 01:17:00,28.9,22.1,30.05,North,0,2.0,4.0,75,0.00,,,0.00,meteohub,2013-03-21 08:17:00,
2013-03-21 01:22:00,29.1,22.3,30.05,NW,315,3.0,4.0,75,0.00,,,0.00,meteohub,2013-03-21 08:22:00,
2013-03-21 01:27:00,29.1,21.9,30.06,SSW,203,3.0,4.0,74,0.00,,,0.00,meteohub,2013-03-21 08:27:00,
2013-03-21 01:32:00,29.3,21.7,30.06,SW,225,2.0,8.0,73,0.00,,,0.00,meteohub,2013-03-21 08:32:00,
2013-03-21 01:37:00,29.3,21.4,30.06,North,0,4.0,8.0,72,0.00,,,0.00,meteohub,2013-03-21 08:37:00,
2013-03-21 01:42:00,29.5,21.6,30.05,North,0,2.0,8.0,72,0.00,,,0.00,meteohub,2013-03-21 08:42:00,
2013-03-21 01:47:00,29.3,21.0,30.05,NE,45,4.0,7.0,71,0.00,,,0.00,meteohub,2013-03-21 08:47:00,
2013-03-21 01:53:00,29.3,20.7,30.06,South,180,2.0,8.0,70,0.00,,,0.00,meteohub,2013-03-21 08:53:00,
2013-03-21 01:59:00,29.1,20.3,30.06,SW,225,3.0,8.0,69,0.00,,,0.00,meteohub,2013-03-21 08:59:00,
2013-03-21 02:05:00,29.1,19.6,30.06,SE,135,3.0,5.0,67,0.00,,,0.00,meteohub,2013-03-21 09:05:00,
2013-03-21 02:11:00,29.1,19.2,30.06,NW,315,4.0,5.0,66,0.00,,,0.00,meteohub,2013-03-21 09:11:00,
2013-03-21 02:17:00,28.9,18.7,30.06,NW,315,2.0,5.0,65,0.00,,,0.00,meteohub,2013-03-21 09:17:00,
2013-03-21 02:22:00,28.9,18.7,30.06,South,180,4.0,4.0,65,0.00,,,0.00,meteohub,2013-03-21 09:22:00,
2013-03-21 02:27:00,28.9,18.7,30.06,SW,225,1.0,4.0,65,0.00,,,0.00,meteohub,2013-03-21 09:27:00,
2013-03-21 02:32:00,28.8,18.5,30.06,NE,45,3.0,4.0,65,0.00,,,0.00,meteohub,2013-03-21 09:32:00,
2013-03-21 02:37:00,28.8,18.5,30.06,SW,225,3.0,8.0,65,0.00,,,0.00,meteohub,2013-03-21 09:37:00,
2013-03-21 02:42:00,29.1,18.5,30.07,SW,225,3.0,8.0,64,0.00,,,0.00,meteohub,2013-03-21 09:42:00,
2013-03-21 02:47:00,29.3,18.3,30.06,East,90,2.0,8.0,63,0.00,,,0.00,meteohub,2013-03-21 09:47:00,
2013-03-21 02:52:00,29.1,18.1,30.07,SW,225,2.0,8.0,63,0.00,,,0.00,meteohub,2013-03-21 09:52:00,
2013-03-21 02:57:00,29.3,18.3,30.07,West,270,2.0,7.0,63,0.00,,,0.00,meteohub,2013-03-21 09:57:00,
2013-03-21 03:02:00,29.3,18.0,30.07,West,270,2.0,4.0,62,0.00,,,0.00,meteohub,2013-03-21 10:02:00,
2013-03-21 03:07:00,29.3,18.0,30.07,SW,225,5.0,5.0,62,0.00,,,0.00,meteohub,2013-03-21 10:07:00,
2013-03-21 03:12:00,29.5,18.1,30.07,SE,135,3.0,5.0,62,0.00,,,0.00,meteohub,2013-03-21 10:12:00,
2013-03-21 03:17:00,29.7,17.8,30.07,SW,225,4.0,7.0,61,0.00,,,0.00,meteohub,2013-03-21 10:17:00,
2013-03-21 03:22:00,29.8,17.6,30.07,South,180,4.0,7.0,60,0.00,,,0.00,meteohub,2013-03-21 10:22:00,
2013-03-21 03:27:00,29.8,17.2,30.06,SW,225,4.0,7.0,59,0.00,,,0.00,meteohub,2013-03-21 10:27:00,
2013-03-21 03:32:00,29.7,16.7,30.06,WSW,248,4.0,7.0,58,0.00,,,0.00,meteohub,2013-03-21 10:32:00,
2013-03-21 03:37:00,29.8,16.9,30.06,SW,225,7.0,7.0,58,0.00,,,0.00,meteohub,2013-03-21 10:37:00,
2013-03-21 03:42:00,29.8,16.5,30.06,East,90,9.0,9.0,57,0.00,,,0.00,meteohub,2013-03-21 10:42:00,
2013-03-21 03:48:00,30.0,16.7,30.06,SE,135,10.0,10.0,57,0.00,,,0.00,meteohub,2013-03-21 10:48:00,
2013-03-21 03:54:00,30.0,17.1,30.06,South,180,8.0,10.0,58,0.00,,,0.00,meteohub,2013-03-21 10:54:00,
2013-03-21 04:00:00,29.8,17.2,30.06,SW,225,8.0,11.0,59,0.00,,,0.00,meteohub,2013-03-21 11:00:00,
2013-03-21 04:07:00,29.8,17.2,30.06,SE,135,8.0,12.0,59,0.00,,,0.00,meteohub,2013-03-21 11:07:00,
2013-03-21 04:12:00,29.8,16.9,30.06,South,180,8.0,12.0,58,0.00,,,0.00,meteohub,2013-03-21 11:12:00,
2013-03-21 04:17:00,29.8,16.9,30.06,South,180,8.0,12.0,58,0.00,,,0.00,meteohub,2013-03-21 11:17:00,
2013-03-21 04:22:00,30.0,17.1,30.06,West,270,7.0,11.0,58,0.00,,,0.00,meteohub,2013-03-21 11:22:00,
2013-03-21 04:27:00,29.8,16.9,30.06,South,180,7.0,11.0,58,0.00,,,0.00,meteohub,2013-03-21 11:27:00,
2013-03-21 04:32:00,29.7,16.7,30.06,South,180,4.0,11.0,58,0.00,,,0.00,meteohub,2013-03-21 11:32:00,
2013-03-21 04:37:00,29.5,16.5,30.06,South,180,3.0,10.0,58,0.00,,,0.00,meteohub,2013-03-21 11:37:00,
2013-03-21 04:42:00,29.3,16.3,30.06,SW,225,3.0,8.0,58,0.00,,,0.00,meteohub,2013-03-21 11:42:00,
2013-03-21 04:47:00,29.1,16.2,30.06,SW,225,4.0,5.0,58,0.00,,,0.00,meteohub,2013-03-21 11:47:00,
2013-03-21 04:53:00,28.9,16.3,30.07,SW,225,3.0,5.0,59,0.00,,,0.00,meteohub,2013-03-21 11:53:00,
2013-03-21 04:59:00,28.6,16.5,30.06,NW,315,3.0,5.0,60,0.00,,,0.00,meteohub,2013-03-21 11:59:00,
2013-03-21 05:05:00,28.4,16.7,30.07,South,180,4.0,5.0,61,0.00,,,0.00,meteohub,2013-03-21 12:05:00,
2013-03-21 05:11:00,28.6,17.2,30.07,South,180,4.0,5.0,62,0.00,,,0.00,meteohub,2013-03-21 12:11:00,
2013-03-21 05:17:00,28.9,17.6,30.06,South,180,5.0,5.0,62,0.00,,,0.00,meteohub,2013-03-21 12:17:00,
2013-03-21 05:22:00,29.1,17.8,30.07,West,270,7.0,7.0,62,0.00,,,0.00,meteohub,2013-03-21 12:22:00,
2013-03-21 05:27:00,29.1,17.8,30.07,South,180,4.0,7.0,62,0.00,,,0.00,meteohub,2013-03-21 12:27:00,
2013-03-21 05:32:00,29.1,17.8,30.07,SW,225,4.0,7.0,62,0.00,,,0.00,meteohub,2013-03-21 12:32:00,
2013-03-21 05:38:00,29.3,18.0,30.07,South,180,2.0,10.0,62,0.00,,,0.00,meteohub,2013-03-21 12:38:00,
2013-03-21 05:44:00,29.3,18.3,30.07,West,270,5.0,10.0,63,0.00,,,0.00,meteohub,2013-03-21 12:44:00,
2013-03-21 05:50:00,29.5,18.5,30.07,South,180,3.0,10.0,63,0.00,,,0.00,meteohub,2013-03-21 12:50:00,
2013-03-21 05:56:00,29.7,18.7,30.07,SW,225,6.0,8.0,63,0.00,,,0.00,meteohub,2013-03-21 12:56:00,
2013-03-21 06:02:00,29.8,18.9,30.08,WSW,248,5.0,8.0,63,0.00,,,0.00,meteohub,2013-03-21 13:02:00,
2013-03-21 06:07:00,30.0,19.0,30.08,SSW,203,4.0,7.0,63,0.00,,,0.00,meteohub,2013-03-21 13:07:00,
2013-03-21 06:12:00,30.0,19.0,30.08,NE,45,4.0,7.0,63,0.00,,,0.00,meteohub,2013-03-21 13:12:00,
2013-03-21 06:18:00,30.2,18.3,30.09,East,90,4.0,7.0,61,0.00,,,0.00,meteohub,2013-03-21 13:18:00,
2013-03-21 06:24:00,30.4,18.5,30.08,South,180,6.0,7.0,61,0.00,,,0.00,meteohub,2013-03-21 13:24:00,
2013-03-21 06:30:00,30.4,17.4,30.08,West,270,4.0,8.0,58,0.00,,,0.00,meteohub,2013-03-21 13:30:00,
2013-03-21 06:37:00,30.4,17.1,30.08,West,270,4.0,8.0,57,0.00,,,0.00,meteohub,2013-03-21 13:37:00,
2013-03-21 06:42:00,30.2,16.3,30.08,SE,135,4.0,7.0,56,0.00,,,0.00,meteohub,2013-03-21 13:42:00,
2013-03-21 06:47:00,30.2,16.3,30.09,SE,135,4.0,5.0,56,0.00,,,0.00,meteohub,2013-03-21 13:47:00,
2013-03-21 06:52:00,29.8,16.0,30.09,South,180,1.0,5.0,56,0.00,,,0.00,meteohub,2013-03-21 13:52:00,
2013-03-21 06:57:00,29.5,16.2,30.09,SE,135,2.0,4.0,57,0.00,,,0.00,meteohub,2013-03-21 13:57:00,
2013-03-21 07:03:00,29.1,15.8,30.08,SE,135,2.0,4.0,57,0.00,,,0.00,meteohub,2013-03-21 14:03:00,
2013-03-21 07:09:00,28.6,15.3,30.08,SW,225,2.0,3.0,57,0.00,,,0.00,meteohub,2013-03-21 14:09:00,
2013-03-21 07:15:00,28.2,13.6,30.08,South,180,2.0,4.0,54,0.00,,,0.00,meteohub,2013-03-21 14:15:00,
2013-03-21 07:21:00,27.9,14.2,30.09,SW,225,3.0,4.0,56,0.00,,,0.00,meteohub,2013-03-21 14:21:00,
2013-03-21 07:27:00,27.7,14.4,30.08,South,180,2.0,6.0,57,0.00,,,0.00,meteohub,2013-03-21 14:27:00,
2013-03-21 07:32:00,27.7,14.9,30.08,East,90,2.0,6.0,58,0.00,,,0.00,meteohub,2013-03-21 14:32:00,
2013-03-21 07:37:00,27.5,14.7,30.08,South,180,2.0,4.0,58,0.00,,,0.00,meteohub,2013-03-21 14:37:00,
2013-03-21 07:42:00,27.3,14.9,30.09,West,270,1.0,4.0,59,0.00,,,0.00,meteohub,2013-03-21 14:42:00,
2013-03-21 07:47:00,27.1,14.7,30.09,SW,225,2.0,4.0,59,0.00,,,0.00,meteohub,2013-03-21 14:47:00,
2013-03-21 07:52:00,27.1,14.7,30.09,SW,225,2.0,3.0,59,0.00,,,0.00,meteohub,2013-03-21 14:52:00,
2013-03-21 07:57:00,27.3,15.3,30.10,SW,225,2.0,3.0,60,0.00,,,0.00,meteohub,2013-03-21 14:57:00,
2013-03-21 08:02:00,27.3,15.3,30.10,SE,135,4.0,4.0,60,0.00,,,0.00,meteohub,2013-03-21 15:02:00,
2013-03-21 08:07:00,27.7,16.0,30.09,SE,135,2.0,4.0,61,0.00,,,0.00,meteohub,2013-03-21 15:07:00,
2013-03-21 08:12:00,27.9,16.2,30.10,SE,135,2.0,4.0,61,0.00,,,0.00,meteohub,2013-03-21 15:12:00,
2013-03-21 08:17:00,28.0,16.3,30.09,East,90,3.0,4.0,61,0.00,,,0.00,meteohub,2013-03-21 15:17:00,
2013-03-21 08:22:00,28.2,16.9,30.10,East,90,3.0,4.0,62,0.00,,,0.00,meteohub,2013-03-21 15:22:00,
2013-03-21 08:28:00,28.6,18.7,30.10,East,90,4.0,4.0,66,0.00,,,0.00,meteohub,2013-03-21 15:28:00,
2013-03-21 08:34:00,28.8,18.9,30.10,South,180,2.0,6.0,66,0.00,,,0.00,meteohub,2013-03-21 15:34:00,
2013-03-21 08:40:00,29.3,19.4,30.10,SE,135,4.0,6.0,66,0.00,,,0.00,meteohub,2013-03-21 15:40:00,
2013-03-21 08:46:00,30.0,20.1,30.10,SE,135,7.0,7.0,66,0.00,,,0.00,meteohub,2013-03-21 15:46:00,
2013-03-21 08:52:00,31.5,21.0,30.10,SE,135,4.0,9.0,65,0.00,,,0.00,meteohub,2013-03-21 15:52:00,
2013-03-21 08:57:00,32.5,21.4,30.10,East,90,5.0,9.0,63,0.00,,,0.00,meteohub,2013-03-21 15:57:00,
2013-03-21 09:02:00,33.6,21.9,30.10,East,90,5.0,9.0,62,0.00,,,0.00,meteohub,2013-03-21 16:02:00,
2013-03-21 09:07:00,34.2,21.4,30.10,East,90,6.0,9.0,59,0.00,,,0.00,meteohub,2013-03-21 16:07:00,
2013-03-21 09:12:00,34.2,20.8,30.10,SW,225,4.0,8.0,58,0.00,,,0.00,meteohub,2013-03-21 16:12:00,
2013-03-21 09:17:00,34.2,20.5,30.10,SW,225,3.0,8.0,57,0.00,,,0.00,meteohub,2013-03-21 16:17:00,
2013-03-21 09:22:00,34.2,20.1,30.10,SSW,203,2.0,6.0,56,0.00,,,0.00,meteohub,2013-03-21 16:22:00,
2013-03-21 09:27:00,34.0,19.9,30.10,South,180,4.0,4.0,56,0.00,,,0.00,meteohub,2013-03-21 16:27:00,
2013-03-21 09:32:00,34.0,20.3,30.10,SW,225,2.0,4.0,57,0.00,,,0.00,meteohub,2013-03-21 16:32:00,
2013-03-21 09:37:00,34.0,20.3,30.09,South,180,5.0,5.0,57,0.00,,,0.00,meteohub,2013-03-21 16:37:00,
2013-03-21 09:42:00,34.2,19.8,30.10,SW,225,3.0,8.0,55,0.00,,,0.00,meteohub,2013-03-21 16:42:00,
2013-03-21 09:47:00,34.3,19.4,30.10,SE,135,3.0,8.0,54,0.00,,,0.00,meteohub,2013-03-21 16:47:00,
2013-03-21 09:52:00,34.5,19.2,30.10,SE,135,4.0,8.0,53,0.00,,,0.00,meteohub,2013-03-21 16:52:00,
2013-03-21 09:57:00,34.9,19.4,30.10,East,90,2.0,7.0,53,0.00,,,0.00,meteohub,2013-03-21 16:57:00,
2013-03-21 10:02:00,35.2,19.8,30.11,South,180,6.0,11.0,53,0.00,,,0.00,meteohub,2013-03-21 17:02:00,
2013-03-21 10:07:00,35.4,19.0,30.11,SW,225,5.0,11.0,51,0.00,,,0.00,meteohub,2013-03-21 17:07:00,
2013-03-21 10:13:00,36.0,18.7,30.11,NE,45,3.0,11.0,49,0.00,,,0.00,meteohub,2013-03-21 17:13:00,
2013-03-21 10:19:00,36.7,19.4,30.11,NW,315,5.0,11.0,49,0.00,,,0.00,meteohub,2013-03-21 17:19:00,
2013-03-21 10:25:00,37.4,20.8,30.10,South,180,5.0,11.0,51,0.00,,,0.00,meteohub,2013-03-21 17:25:00,
2013-03-21 10:31:00,38.3,21.7,30.11,SE,135,4.0,11.0,51,0.00,,,0.00,meteohub,2013-03-21 17:31:00,
2013-03-21 10:37:00,39.0,21.9,30.10,WSW,248,7.0,11.0,50,0.00,,,0.00,meteohub,2013-03-21 17:37:00,
2013-03-21 10:43:00,39.2,21.2,30.11,South,180,11.0,13.0,48,0.00,,,0.00,meteohub,2013-03-21 17:43:00,
2013-03-21 10:50:00,39.6,21.6,30.11,West,270,4.0,14.0,48,0.00,,,0.00,meteohub,2013-03-21 17:50:00,
2013-03-21 10:56:00,40.5,22.3,30.11,WNW,293,11.0,14.0,48,0.00,,,0.00,meteohub,2013-03-21 17:56:00,
2013-03-21 11:02:00,41.0,22.3,30.11,East,90,3.0,11.0,47,0.00,,,0.00,meteohub,2013-03-21 18:02:00,
2013-03-21 11:07:00,41.7,22.5,30.11,NE,45,7.0,11.0,46,0.00,,,0.00,meteohub,2013-03-21 18:07:00,
2013-03-21 11:12:00,41.9,22.1,30.11,NNE,23,6.0,11.0,45,0.00,,,0.00,meteohub,2013-03-21 18:12:00,
2013-03-21 11:17:00,41.2,20.8,30.11,NW,315,11.0,11.0,44,0.00,,,0.00,meteohub,2013-03-21 18:17:00,
2013-03-21 11:22:00,41.0,22.8,30.11,SSW,203,3.0,11.0,48,0.00,,,0.00,meteohub,2013-03-21 18:22:00,
2013-03-21 11:27:00,42.1,24.8,30.11,NW,315,8.0,12.0,50,0.00,,,0.00,meteohub,2013-03-21 18:27:00,
2013-03-21 11:32:00,42.3,23.9,30.11,South,180,9.0,12.0,48,0.00,,,0.00,meteohub,2013-03-21 18:32:00,
2013-03-21 11:37:00,42.3,23.5,30.11,NW,315,4.0,12.0,47,0.00,,,0.00,meteohub,2013-03-21 18:37:00,
2013-03-21 11:42:00,42.3,23.0,30.11,SE,135,3.0,9.0,46,0.00,,,0.00,meteohub,2013-03-21 18:42:00,
2013-03-21 11:47:00,42.3,23.0,30.11,NW,315,10.0,11.0,46,0.00,,,0.00,meteohub,2013-03-21 18:47:00,
2013-03-21 11:52:00,42.4,23.7,30.11,South,180,4.0,11.0,47,0.00,,,0.00,meteohub,2013-03-21 18:52:00,
2013-03-21 11:57:00,42.1,22.3,30.11,NW,315,12.0,12.0,45,0.00,,,0.00,meteohub,2013-03-21 18:57:00,
2013-03-21 12:02:00,42.4,23.7,30.11,East,90,8.0,20.0,47,0.00,,,0.00,meteohub,2013-03-21 19:02:00,
2013-03-21 12:07:00,43.7,23.7,30.11,NE,45,4.0,20.0,45,0.00,,,0.00,meteohub,2013-03-21 19:07:00,
2013-03-21 12:12:00,43.5,23.0,30.11,NW,315,10.0,20.0,44,0.00,,,0.00,meteohub,2013-03-21 19:12:00,
2013-03-21 12:17:00,43.9,24.4,30.11,NW,315,12.0,12.0,46,0.00,,,0.00,meteohub,2013-03-21 19:17:00,
2013-03-21 12:22:00,44.2,23.2,30.11,SW,225,12.0,12.0,43,0.00,,,0.00,meteohub,2013-03-21 19:22:00,
2013-03-21 12:27:00,44.4,22.1,30.11,NE,45,9.0,12.0,41,0.00,,,0.00,meteohub,2013-03-21 19:27:00,
2013-03-21 12:33:00,43.9,23.4,30.11,NW,315,7.0,12.0,44,0.00,,,0.00,meteohub,2013-03-21 19:33:00,
2013-03-21 12:39:00,42.4,23.7,30.12,West,270,9.0,14.0,47,0.00,,,0.00,meteohub,2013-03-21 19:39:00,
2013-03-21 12:45:00,40.6,23.5,30.12,SSW,203,3.0,14.0,50,0.00,,,0.00,meteohub,2013-03-21 19:45:00,
2013-03-21 12:51:00,40.5,23.7,30.12,SW,225,5.0,13.0,51,0.00,,,0.00,meteohub,2013-03-21 19:51:00,
2013-03-21 12:57:00,40.8,23.5,30.12,SW,225,5.0,13.0,50,0.00,,,0.00,meteohub,2013-03-21 19:57:00,
2013-03-21 13:02:00,41.7,23.0,30.12,WNW,293,11.0,11.0,47,0.00,,,0.00,meteohub,2013-03-21 20:02:00,
2013-03-21 13:07:00,42.4,23.7,30.12,North,0,8.0,11.0,47,0.00,,,0.00,meteohub,2013-03-21 20:07:00,
2013-03-21 13:13:00,43.3,23.4,30.12,SE,135,10.0,11.0,45,0.00,,,0.00,meteohub,2013-03-21 20:13:00,
2013-03-21 13:19:00,43.0,21.4,30.11,SE,135,9.0,11.0,42,0.00,,,0.00,meteohub,2013-03-21 20:19:00,
2013-03-21 13:26:00,42.6,21.7,30.12,SE,135,5.0,11.0,43,0.00,,,0.00,meteohub,2013-03-21 20:26:00,
2013-03-21 13:32:00,43.5,22.5,30.12,SW,225,7.0,11.0,43,0.00,,,0.00,meteohub,2013-03-21 20:32:00,
2013-03-21 13:38:00,43.3,22.3,30.11,NE,45,8.0,11.0,43,0.00,,,0.00,meteohub,2013-03-21 20:38:00,
2013-03-21 13:44:00,43.5,23.0,30.11,South,180,4.0,11.0,44,0.00,,,0.00,meteohub,2013-03-21 20:44:00,
2013-03-21 13:50:00,43.3,22.3,30.11,SSE,158,5.0,11.0,43,0.00,,,0.00,meteohub,2013-03-21 20:50:00,
2013-03-21 13:56:00,42.4,21.0,30.11,SW,225,6.0,11.0,42,0.00,,,0.00,meteohub,2013-03-21 20:56:00,
2013-03-21 14:02:00,42.8,21.4,30.10,NE,45,6.0,11.0,42,0.00,,,0.00,meteohub,2013-03-21 21:02:00,
2013-03-21 14:07:00,43.0,20.3,30.10,SW,225,6.0,11.0,40,0.00,,,0.00,meteohub,2013-03-21 21:07:00,
2013-03-21 14:12:00,42.4,20.5,30.10,South,180,8.0,13.0,41,0.00,,,0.00,meteohub,2013-03-21 21:12:00,
2013-03-21 14:18:00,41.7,19.8,30.11,South,180,8.0,13.0,41,0.00,,,0.00,meteohub,2013-03-21 21:18:00,
2013-03-21 14:24:00,41.7,20.8,30.10,NW,315,9.0,12.0,43,0.00,,,0.00,meteohub,2013-03-21 21:24:00,
2013-03-21 14:31:00,42.4,21.6,30.10,NW,315,8.0,12.0,43,0.00,,,0.00,meteohub,2013-03-21 21:31:00,
2013-03-21 14:37:00,43.2,21.0,30.10,WSW,248,9.0,14.0,41,0.00,,,0.00,meteohub,2013-03-21 21:37:00,
2013-03-21 14:42:00,43.2,20.5,30.09,South,180,6.0,14.0,40,0.00,,,0.00,meteohub,2013-03-21 21:42:00,
2013-03-21 14:47:00,42.3,20.3,30.09,East,90,5.0,14.0,41,0.00,,,0.00,meteohub,2013-03-21 21:47:00,
2013-03-21 14:52:00,41.7,20.3,30.09,NW,315,11.0,14.0,42,0.00,,,0.00,meteohub,2013-03-21 21:52:00,
2013-03-21 14:57:00,41.5,23.4,30.10,North,0,15.0,15.0,48,0.00,,,0.00,meteohub,2013-03-21 21:57:00,
2013-03-21 15:03:00,41.2,25.3,30.09,SW,225,11.0,20.0,53,0.00,,,0.00,meteohub,2013-03-21 22:03:00,
2013-03-21 15:09:00,40.8,26.4,30.10,SW,225,13.0,20.0,56,0.00,,,0.00,meteohub,2013-03-21 22:09:00,
2013-03-21 15:16:00,41.0,25.7,30.09,North,0,9.0,14.0,54,0.00,,,0.00,meteohub,2013-03-21 22:16:00,
2013-03-21 15:22:00,41.0,25.7,30.08,SW,225,15.0,15.0,54,0.00,,,0.00,meteohub,2013-03-21 22:22:00,
2013-03-21 15:27:00,41.2,26.2,30.08,West,270,13.0,15.0,55,0.00,,,0.00,meteohub,2013-03-21 22:27:00,
2013-03-21 15:32:00,41.0,25.7,30.08,SE,135,11.0,15.0,54,0.00,,,0.00,meteohub,2013-03-21 22:32:00,
2013-03-21 15:37:00,41.2,25.3,30.08,South,180,11.0,15.0,53,0.00,,,0.00,meteohub,2013-03-21 22:37:00,
2013-03-21 15:42:00,41.4,25.5,30.08,SE,135,5.0,15.0,53,0.00,,,0.00,meteohub,2013-03-21 22:42:00,
2013-03-21 15:48:00,41.9,25.5,30.07,East,90,6.0,15.0,52,0.00,,,0.00,meteohub,2013-03-21 22:48:00,
2013-03-21 15:54:00,41.7,25.3,30.07,North,0,11.0,12.0,52,0.00,,,0.00,meteohub,2013-03-21 22:54:00,
2013-03-21 16:00:00,41.5,25.2,30.08,SE,135,7.0,14.0,52,0.00,,,0.00,meteohub,2013-03-21 23:00:00,
2013-03-21 16:07:00,42.1,25.3,30.07,NE,45,13.0,14.0,51,0.00,,,0.00,meteohub,2013-03-21 23:07:00,
2013-03-21 16:12:00,42.6,24.8,30.08,South,180,8.0,14.0,49,0.00,,,0.00,meteohub,2013-03-21 23:12:00,
2013-03-21 16:17:00,42.8,23.0,30.08,East,90,7.0,13.0,45,0.00,,,0.00,meteohub,2013-03-21 23:17:00,
2013-03-21 16:22:00,43.0,23.5,30.08,South,180,4.0,13.0,46,0.00,,,0.00,meteohub,2013-03-21 23:22:00,
2013-03-21 16:27:00,42.6,23.4,30.08,South,180,7.0,15.0,46,0.00,,,0.00,meteohub,2013-03-21 23:27:00,
2013-03-21 16:32:00,41.9,22.1,30.08,South,180,8.0,15.0,45,0.00,,,0.00,meteohub,2013-03-21 23:32:00,
2013-03-21 16:37:00,41.0,21.7,30.08,SW,225,10.0,15.0,46,0.00,,,0.00,meteohub,2013-03-21 23:37:00,
2013-03-21 16:42:00,39.9,21.4,30.08,NW,315,10.0,10.0,47,0.00,,,0.00,meteohub,2013-03-21 23:42:00,
2013-03-21 16:47:00,39.2,21.6,30.08,South,180,7.0,16.0,49,0.00,,,0.00,meteohub,2013-03-21 23:47:00,
2013-03-21 16:52:00,39.0,22.8,30.09,South,180,4.0,16.0,52,0.00,,,0.00,meteohub,2013-03-21 23:52:00,
2013-03-21 16:57:00,39.0,22.8,30.09,SW,225,5.0,16.0,52,0.00,,,0.00,meteohub,2013-03-21 23:57:00,
2013-03-21 17:02:00,38.7,22.6,30.09,NW,315,4.0,10.0,52,0.00,,,0.00,meteohub,2013-03-22 00:02:00,
2013-03-21 17:07:00,38.5,22.5,30.09,WSW,248,5.0,10.0,52,0.00,,,0.00,meteohub,2013-03-22 00:07:00,
2013-03-21 17:14:00,38.7,23.0,30.09,South,180,4.0,8.0,53,0.00,,,0.00,meteohub,2013-03-22 00:14:00,
2013-03-21 17:20:00,38.3,22.6,30.09,SE,135,2.0,8.0,53,0.00,,,0.00,meteohub,2013-03-22 00:20:00,
2013-03-21 17:26:00,38.3,22.6,30.09,SW,225,2.0,7.0,53,0.00,,,0.00,meteohub,2013-03-22 00:26:00,
2013-03-21 17:32:00,38.3,23.2,30.09,NW,315,6.0,6.0,54,0.00,,,0.00,meteohub,2013-03-22 00:32:00,
2013-03-21 17:37:00,39.0,24.3,30.08,SW,225,4.0,7.0,55,0.00,,,0.00,meteohub,2013-03-22 00:37:00,
2013-03-21 17:42:00,39.9,24.6,30.08,NW,315,9.0,9.0,54,0.00,,,0.00,meteohub,2013-03-22 00:42:00,
2013-03-21 17:47:00,40.3,24.4,30.08,SSE,158,3.0,9.0,53,0.00,,,0.00,meteohub,2013-03-22 00:47:00,
2013-03-21 17:52:00,40.3,24.1,30.08,NW,315,5.0,9.0,52,0.00,,,0.00,meteohub,2013-03-22 00:52:00,
2013-03-21 17:57:00,40.5,24.3,30.08,East,90,4.0,9.0,52,0.00,,,0.00,meteohub,2013-03-22 00:57:00,
2013-03-21 18:02:00,40.6,23.9,30.08,SE,135,4.0,8.0,51,0.00,,,0.00,meteohub,2013-03-22 01:02:00,
2013-03-21 18:08:00,40.5,22.8,30.08,North,0,5.0,6.0,49,0.00,,,0.00,meteohub,2013-03-22 01:08:00,
2013-03-21 18:15:00,39.9,22.3,30.08,SW,225,4.0,8.0,49,0.00,,,0.00,meteohub,2013-03-22 01:15:00,
2013-03-21 18:21:00,39.4,22.3,30.08,NW,315,6.0,8.0,50,0.00,,,0.00,meteohub,2013-03-22 01:21:00,
2013-03-21 18:27:00,38.7,22.6,30.08,SE,135,4.0,8.0,52,0.00,,,0.00,meteohub,2013-03-22 01:27:00,
2013-03-21 18:32:00,38.5,22.5,30.08,NW,315,4.0,8.0,52,0.00,,,0.00,meteohub,2013-03-22 01:32:00,
2013-03-21 18:37:00,38.5,22.8,30.08,North,0,5.0,8.0,53,0.00,,,0.00,meteohub,2013-03-22 01:37:00,
2013-03-21 18:42:00,37.9,22.3,30.09,North,0,9.0,9.0,53,0.00,,,0.00,meteohub,2013-03-22 01:42:00,
2013-03-21 18:47:00,37.0,20.7,30.09,South,180,7.0,9.0,51,0.00,,,0.00,meteohub,2013-03-22 01:47:00,
2013-03-21 18:52:00,36.3,21.7,30.09,North,0,8.0,9.0,55,0.00,,,0.00,meteohub,2013-03-22 01:52:00,
2013-03-21 18:58:00,35.6,22.3,30.09,NW,315,6.0,9.0,58,0.00,,,0.00,meteohub,2013-03-22 01:58:00,
2013-03-21 19:04:00,34.9,22.8,30.09,NW,315,3.0,8.0,61,0.00,,,0.00,meteohub,2013-03-22 02:04:00,
2013-03-21 19:10:00,34.3,23.0,30.09,NW,315,6.0,8.0,63,0.00,,,0.00,meteohub,2013-03-22 02:10:00,
2013-03-21 19:16:00,34.0,23.5,30.09,NW,315,2.0,8.0,65,0.00,,,0.00,meteohub,2013-03-22 02:16:00,
2013-03-21 19:22:00,33.6,23.5,30.09,East,90,2.0,7.0,66,0.00,,,0.00,meteohub,2013-03-22 02:22:00,
2013-03-21 19:27:00,33.4,23.4,30.09,East,90,4.0,6.0,66,0.00,,,0.00,meteohub,2013-03-22 02:27:00,
2013-03-21 19:32:00,33.3,23.2,30.09,NW,315,7.0,7.0,66,0.00,,,0.00,meteohub,2013-03-22 02:32:00,
2013-03-21 19:38:00,33.3,22.8,30.09,NW,315,3.0,10.0,65,0.00,,,0.00,meteohub,2013-03-22 02:38:00,
2013-03-21 19:45:00,33.1,21.9,30.09,SE,135,4.0,10.0,63,0.00,,,0.00,meteohub,2013-03-22 02:45:00,
2013-03-21 19:51:00,33.1,21.6,30.09,SSE,158,9.0,9.0,62,0.00,,,0.00,meteohub,2013-03-22 02:51:00,
2013-03-21 19:57:00,33.3,21.7,30.09,WNW,293,4.0,9.0,62,0.00,,,0.00,meteohub,2013-03-22 02:57:00,
2013-03-21 20:02:00,33.1,21.6,30.10,NNE,23,3.0,9.0,62,0.00,,,0.00,meteohub,2013-03-22 03:02:00,
2013-03-21 20:07:00,33.1,21.6,30.10,SW,225,7.0,9.0,62,0.00,,,0.00,meteohub,2013-03-22 03:07:00,
2013-03-21 20:12:00,33.1,21.9,30.10,SW,225,4.0,8.0,63,0.00,,,0.00,meteohub,2013-03-22 03:12:00,
2013-03-21 20:17:00,33.3,21.7,30.10,NE,45,4.0,8.0,62,0.00,,,0.00,meteohub,2013-03-22 03:17:00,
2013-03-21 20:22:00,33.6,21.9,30.10,SE,135,2.0,9.0,62,0.00,,,0.00,meteohub,2013-03-22 03:22:00,
2013-03-21 20:27:00,33.8,21.7,30.10,NW,315,4.0,9.0,61,0.00,,,0.00,meteohub,2013-03-22 03:27:00,
2013-03-21 20:32:00,33.6,21.9,30.11,NW,315,3.0,9.0,62,0.00,,,0.00,meteohub,2013-03-22 03:32:00,
2013-03-21 20:37:00,33.4,21.7,30.10,SW,225,5.0,7.0,62,0.00,,,0.00,meteohub,2013-03-22 03:37:00,
2013-03-21 20:44:00,33.4,22.3,30.11,NE,45,4.0,7.0,63,0.00,,,0.00,meteohub,2013-03-22 03:44:00,
2013-03-21 20:50:00,33.3,22.1,30.11,SE,135,4.0,11.0,63,0.00,,,0.00,meteohub,2013-03-22 03:50:00,
2013-03-21 20:56:00,33.3,22.5,30.11,NW,315,6.0,11.0,64,0.00,,,0.00,meteohub,2013-03-22 03:56:00,
2013-03-21 21:00:00,33.1,22.3,30.11,NW,315,3.0,11.0,64,0.00,,,0.00,meteohub,2013-03-22 04:00:00,
2013-03-21 21:02:00,32.9,22.1,30.11,SE,135,2.0,10.0,64,0.00,,,0.00,meteohub,2013-03-22 04:02:00,
2013-03-21 21:07:00,32.7,22.3,30.11,West,270,4.0,10.0,65,0.00,,,0.00,meteohub,2013-03-22 04:07:00,
2013-03-21 21:12:00,32.4,21.9,30.11,North,0,2.0,7.0,65,0.00,,,0.00,meteohub,2013-03-22 04:12:00,
2013-03-21 21:18:00,32.2,21.7,30.11,SSE,158,3.0,7.0,65,0.00,,,0.00,meteohub,2013-03-22 04:18:00,
2013-03-21 21:24:00,32.0,21.6,30.12,West,270,1.0,7.0,65,0.00,,,0.00,meteohub,2013-03-22 04:24:00,
2013-03-21 21:30:00,32.0,21.6,30.11,NW,315,2.0,7.0,65,0.00,,,0.00,meteohub,2013-03-22 04:30:00,
2013-03-21 21:36:00,31.6,21.6,30.12,North,0,4.0,5.0,66,0.00,,,0.00,meteohub,2013-03-22 04:36:00,
2013-03-21 21:42:00,31.6,21.6,30.12,SE,135,4.0,8.0,66,0.00,,,0.00,meteohub,2013-03-22 04:42:00,
2013-03-21 21:47:00,31.5,21.4,30.12,WNW,293,2.0,8.0,66,0.00,,,0.00,meteohub,2013-03-22 04:47:00,
2013-03-21 21:52:00,31.5,21.4,30.12,SW,225,6.0,6.0,66,0.00,,,0.00,meteohub,2013-03-22 04:52:00,
2013-03-21 21:57:00,31.5,21.4,30.12,West,270,3.0,6.0,66,0.00,,,0.00,meteohub,2013-03-22 04:57:00,
2013-03-21 22:02:00,31.6,21.2,30.12,WNW,293,4.0,8.0,65,0.00,,,0.00,meteohub,2013-03-22 05:02:00,
2013-03-21 22:07:00,31.6,21.2,30.12,WNW,293,2.0,8.0,65,0.00,,,0.00,meteohub,2013-03-22 05:07:00,
2013-03-21 22:13:00,31.8,21.0,30.12,South,180,3.0,8.0,64,0.00,,,0.00,meteohub,2013-03-22 05:13:00,
2013-03-21 22:19:00,32.0,20.5,30.12,South,180,3.0,7.0,62,0.00,,,0.00,meteohub,2013-03-22 05:19:00,
2013-03-21 22:25:00,32.2,20.3,30.11,West,270,4.0,7.0,61,0.00,,,0.00,meteohub,2013-03-22 05:25:00,
2013-03-21 22:31:00,32.2,20.3,30.12,West,270,3.0,7.0,61,0.00,,,0.00,meteohub,2013-03-22 05:31:00,
2013-03-21 22:37:00,32.0,20.1,30.12,NE,45,3.0,7.0,61,0.00,,,0.00,meteohub,2013-03-22 05:37:00,
2013-03-21 22:43:00,32.0,20.5,30.12,ENE,68,2.0,6.0,62,0.00,,,0.00,meteohub,2013-03-22 05:43:00,
2013-03-21 22:49:00,32.0,20.5,30.13,South,180,3.0,5.0,62,0.00,,,0.00,meteohub,2013-03-22 05:49:00,
2013-03-21 22:56:00,32.0,20.5,30.12,NW,315,11.0,11.0,62,0.00,,,0.00,meteohub,2013-03-22 05:56:00,
2013-03-21 23:02:00,31.8,20.7,30.12,East,90,4.0,11.0,63,0.00,,,0.00,meteohub,2013-03-22 06:02:00,
2013-03-21 23:07:00,31.6,20.5,30.13,SW,225,3.0,11.0,63,0.00,,,0.00,meteohub,2013-03-22 06:07:00,
2013-03-21 23:12:00,31.3,20.1,30.12,SE,135,4.0,11.0,63,0.00,,,0.00,meteohub,2013-03-22 06:12:00,
2013-03-21 23:17:00,31.1,19.9,30.12,South,180,3.0,7.0,63,0.00,,,0.00,meteohub,2013-03-22 06:17:00,
2013-03-21 23:22:00,30.7,19.9,30.13,North,0,4.0,7.0,64,0.00,,,0.00,meteohub,2013-03-22 06:22:00,
2013-03-21 23:27:00,30.4,19.6,30.12,SW,225,4.0,4.0,64,0.00,,,0.00,meteohub,2013-03-22 06:27:00,
2013-03-21 23:32:00,30.2,19.9,30.12,East,90,2.0,4.0,65,0.00,,,0.00,meteohub,2013-03-22 06:32:00,
2013-03-21 23:38:00,30.0,20.1,30.12,South,180,3.0,5.0,66,0.00,,,0.00,meteohub,2013-03-22 06:38:00,
2013-03-21 23:44:00,29.8,19.9,30.12,SW,225,4.0,5.0,66,0.00,,,0.00,meteohub,2013-03-22 06:44:00,
2013-03-21 23:50:00,29.8,19.2,30.12,NW,315,2.0,7.0,64,0.00,,,0.00,meteohub,2013-03-22 06:50:00,
2013-03-21 23:56:00,29.7,19.0,30.12,ESE,113,2.0,7.0,64,0.00,,,0.00,meteohub,2013-03-22 06:56:00,